Погода в Шуе

Россия / Новгородская область     58°00′52″N   33°23′29″E
темп.,
°C
ветер,
м/с
пор.,
м/с
влажн.,
%
обл.,
%
осадки,
мм/ч
давл.,
гПа
погр.,
м
10 апреля, сб
сб1000:00+3ююз61469100 0.0 1017983
03:00+3ююз61470100 0.0 1016915
06:00+3ююз51374100 0.0 1016771
09:00+5ю61466100 0.0 10171217
12:00+8ююз61355100 0.0 10161579
15:00+10ююз7134995 0.0 10152042
18:00+9ююз6135592 0.1 10151692
21:00+6зюз61274100 0.5 10171196
11 апреля, вс
вс1100:00+2з2697100 4.7 1020423
03:00+2юз2394100 4.8 102380
06:00+1зюз1191100 0.0 102412
09:00+5юз127224 0.0 1026534
12:00+8юз13516 0.0 10271302
15:00+9ююз2353100 0.0 10281469
18:00+8ю236734 0.0 1028877
21:00+6юв258690 0.0 1030177
12 апреля, пн
пн1200:00+6юв3890100 0.0 1030273
03:00+6юв259168 0.0 1030149
06:00+4ююв269335 0.0 1030112
09:00+10ю37695 0.0 1029285
12:00+14ю47515 0.0 10281055
15:00+16ююв46423 0.0 10271473
18:00+14юв474865 0.0 10251014
21:00+10юв31163100 0.0 1024357
13 апреля, вт
вт1300:00+9ююв4973100 0.0 1023587
03:00+8ююв3895100 1.8 1022395
06:00+7ююв2698100 1.4 1022284
09:00+7ю2698100 2.6 1021267
12:00+9ю3790100 0.1 1021420
15:00+10ю2892100 0.1 1020355
18:00+8ююв2598100 0.4 1020165
21:00+8ююв2798100 0.9 1020192
14 апреля, ср
ср1400:00+8юв2596100 0.1 1019136
03:00+8ююв2598100 0.4 1017141
06:00+8ю2498100 0.0 1016128
09:00+8ю2698100 0.1 1016217
12:00+9ю2696100 0.2 1016318
15:00+10ю259393 0.3 1016341
18:00+11ю129084 0.0 1015133
21:00+9ююв119573 0.5 101610